CAPE
0 0 0 0 0 0 0 0 0 0 0 0 0 0 0 2 1 1 1 4 3 2
0 0 0 0 0 0 0 0 0 0 0 0 0 0 0 0 0 0 1 1 2 3
0 0 0 0 0 0 0 0 0 0 0 0 0 0 0 0 0 0 0 0 0 1
0 0 0 0 0 0 0 0 0 0 0 0 0 0 0 0 0 0 0 0 0 0
0 0 0 0 0 0 0 0 0 0 0 0 0 0 0 0 0 0 0 0 0 0
0 0 0 0 0 0 0 0 0 0 0 0 0 0 0 0 0 0 0 0 0 0
0 0 0 0 0 0 0 0 0 0 0 0 0 0 0 0 0 0 0 0 0 0
0 0 0 0 0 0 0 0 0 0 0 0 0 0 0 0 0 0 0 0 0 0
0 0 0 0 0 0 0 0 0 0 0 0 0 0 0 0 0 0 0 0 0 0
0 0 0 0 0 0 0 0 0 0 0 0 0 0 0 0 0 0 0 0 0 0
0 0 0 0 0 0 0 0 0 0 0 0 0 0 0 0 0 0 0 0 0 0
0 0 0 0 0 0 0 0 0 0 0 0 0 0 0 0 0 0 0 0 0 0
0 0 0 0 0 0 0 0 0 0 0 0 0 0 0 0 0 0 0 0 0 0
0 0 0 0 0 0 0 0 0 0 0 0 0 0 0 0 0 0 1 0 0 0
CIN
-0 -0 -0 -0 -0 -0 -0 -0 -0 -0 -0 -0 -0 -0 -0 -0 -0 -0 -0 -0 -0 -0
-0 -0 -0 -0 -0 -0 -0 -0 -0 -0 -0 -0 -0 -0 -0 -0 -0 -0 -0 -0 -0 -0
-0 -0 -0 -0 -0 -0 -0 -0 -0 -0 -0 -0 -0 -0 -0 -0 -0 -0 -0 -0 -0 -0
-0 -0 -0 -0 -0 -0 -0 -0 -0 -0 -0 -0 -0 -0 -0 -0 -0 -0 -0 -0 -0 -0
-0 -0 -0 -0 -0 -0 -0 -0 -0 -0 -0 -0 -0 -0 -0 -0 -0 -0 -0 -0 -0 -0
-0 -0 -0 -0 -0 -0 -0 -0 -0 -0 -0 -0 -0 -0 -0 -0 -0 -0 -0 -0 -0 -0
-0 -0 -0 -0 -0 -0 -0 -0 -0 -0 -0 -0 -0 -0 -0 -0 -0 -0 -0 -0 -0 -0
-0 -0 -0 -0 -0 -0 -0 -0 -0 -0 -0 -0 -0 -0 -0 -0 -0 -0 -0 -0 -0 -0
-0 -0 -0 -0 -0 -0 -0 -0 -0 -0 -0 -0 -0 -0 -0 -0 -0 -0 -0 -0 -0 -0
-0 -0 -0 -0 -0 -0 -0 -0 -0 -0 -0 -0 -0 -0 -0 -0 -0 -0 -0 -0 -0 -0
-0 -0 -0 -0 -0 -0 -0 -0 -0 -0 -0 -0 -0 -0 -0 -0 -0 -0 -0 -0 -0 -0
-0 -0 -0 -0 -0 -0 -0 -0 -0 -0 -0 -0 -0 -0 -0 -0 -0 -0 -0 -0 -0 -0
-0 -0 -0 -0 -0 -0 -0 -0 -0 -0 -0 -0 -0 -0 -0 -0 -0 -0 -0 -0 -0 -0
-0 -0 -0 -0 -0 -0 -0 -0 -0 -0 -0 -0 -0 -0 -0 -0 -0 -0 -3 -0 -0 -0
Wind_Speed
21 21 19 21 22 24 24 27 27 27 28 28 30 31 32 31 31 32 32 33 30 32
20 20 20 22 22 23 23 24 24 25 27 29 30 31 31 32 32 32 31 30 29 29
23 23 23 23 22 23 21 24 27 28 29 30 31 31 32 32 31 32 30 30 30 29
22 24 25 24 24 24 25 27 28 30 31 31 33 33 33 32 32 30 29 30 31 32
19 19 25 26 26 27 29 30 31 32 32 33 33 32 33 34 34 34 33 33 33 33
20 23 25 26 27 28 29 31 31 32 34 34 34 33 33 34 34 34 33 34 34 34
22 23 23 25 27 29 30 30 31 32 33 34 35 32 34 36 36 36 36 35 34 34
22 24 25 27 29 31 32 33 33 34 34 34 34 32 35 35 36 37 37 37 36 36
23 26 29 32 34 35 36 36 37 38 38 38 37 38 39 39 39 40 40 39 38 37
27 30 32 33 34 35 35 36 36 37 38 38 39 40 40 41 41 42 42 42 42 41
27 29 31 33 33 34 35 36 37 38 38 39 39 40 41 41 40 40 41 41 41 41
28 30 31 31 33 35 36 36 36 36 37 38 39 39 40 39 38 41 42 41 40 41
27 29 31 32 33 33 34 36 35 36 37 37 39 39 39 39 38 41 42 41 41 43
29 30 31 32 34 36 36 36 37 37 37 37 38 39 39 40 41 42 43 44 44 42
Wind_Direction
328 334 327 316 318 323 325 311 312 316 318 322 323 319 320 322 327 322 312 302 303 297
328 329 328 318 312 331 328 323 315 328 324 324 329 327 313 320 319 316 319 314 310 303
17 5 353 339 333 336 344 337 330 329 330 331 329 327 322 318 316 321 315 307 315 305
30 3 357 358 354 348 344 339 335 333 332 332 329 327 326 320 322 318 317 315 312 313
43 40 345 337 331 331 333 330 329 329 329 329 327 336 325 321 320 320 318 318 314 311
28 15 3 357 352 345 340 338 336 332 330 329 328 330 330 328 326 323 324 316 312 310
11 8 4 359 353 348 345 342 339 337 334 331 329 329 326 323 321 319 317 316 316 316
4 0 356 352 347 343 340 338 336 334 333 332 331 330 328 326 323 319 316 315 314 313
1 355 350 345 341 338 336 334 331 329 328 325 325 322 321 321 320 319 317 315 315 314
351 347 345 343 341 339 337 335 333 331 329 326 324 322 320 318 318 316 314 313 311 311
352 349 347 344 343 341 339 337 334 332 330 327 325 322 320 318 318 317 315 312 311 309
351 347 347 346 343 341 338 336 336 335 333 330 327 326 324 322 322 319 317 316 314 312
350 348 346 344 343 342 339 336 337 335 333 331 329 329 327 326 324 320 318 318 316 312
348 346 344 343 342 339 338 338 336 336 336 335 332 331 330 328 324 321 319 317 316 314